This is the latest recevied weather packets stored in our database for station/object SQ8AQX-13. If no packets are shown the sender has not sent any weather packets the latest 10 day(s).
| Time | Temp. | Humidity | Pressure | Rain* | Wind** | Luminosity | Snow |
|---|---|---|---|---|---|---|---|
| 1777137083 | 17.78° C | 37% | 1010 hPa | - | - | - | - |
| 1777135283 | 18.89° C | 36% | 1010 hPa | - | - | - | - |
| 1777134683 | 19.44° C | 35% | 1010.1 hPa | - | - | - | - |
| 1777134083 | 19.44° C | 34% | 1010.2 hPa | - | - | - | - |
| 1777132283 | 21.67° C | 32% | 1010.3 hPa | - | - | - | - |
| 1777131683 | 21.11° C | 32% | 1010.5 hPa | - | - | - | - |
| 1777131083 | 21.11° C | 32% | 1010.6 hPa | - | - | - | - |
| 1777129282 | 20.56° C | 33% | 1010.7 hPa | - | - | - | - |
| 1777128682 | 20.56° C | 34% | 1010.7 hPa | - | - | - | - |
| 1777128081 | 1.11° C | 15% | 1010.8 hPa | - | - | - | - |
| 1777126281 | 1.11° C | 15% | 1011 hPa | - | - | - | - |
| 1777125681 | 1.11° C | 15% | 1011.1 hPa | - | - | - | - |
| 1777125081 | 1.11° C | 15% | 1011.2 hPa | - | - | - | - |
| 1777121480 | 1.11° C | 15% | 1011.9 hPa | - | - | - | - |
| 1777120880 | 1.11° C | 15% | 1012.1 hPa | - | - | - | - |
| 1777120280 | 1.11° C | 15% | 1012.2 hPa | - | - | - | - |
| 1777119680 | 1.11° C | 15% | 1012.3 hPa | - | - | - | - |
| 1777116679 | 1.11° C | 15% | 1013 hPa | - | - | - | - |
| 1777116079 | 1.11° C | 15% | 1013 hPa | - | - | - | - |
| 1777115479 | 1.11° C | 15% | 1013.2 hPa | - | - | - | - |
| 1777114879 | 1.11° C | 15% | 1013.4 hPa | - | - | - | - |
| 1777113078 | 1.11° C | 15% | 1013.9 hPa | - | - | - | - |
| 1777112478 | 1.11° C | 15% | 1013.9 hPa | - | - | - | - |
| 1777111878 | 1.11° C | 15% | 1014.1 hPa | - | - | - | - |
| 1777110077 | 1.11° C | 15% | 1014.2 hPa | - | - | - | - |
* Rain since midnight (hover to see other rain measurements)
** Current wind speed in m/s (hover to see current wind gust speed)